Regional Weather Roundup
Issued by NWS Goodland, KS

Home | Current Version | Previous Version | Graphics & Text | Print | Product List | Glossary On
Versions: 1 2 3 4 5 6 7 8 9 10 11 12 13 14 15 16 17 18 19 20 21 22 23 24 25 26 27 28 29 30 31 32 33 34 35 36 37 38 39 40 41 42 43 44 45 46 47 48 49 50
000
ASUS43 KGLD 211859
RWRGLD

GOODLAND FORECAST AREA HOURLY WEATHER ROUNDUP
NATIONAL WEATHER SERVICE GOODLAND KS
1200 PM MST SUN DEC 21 2014

...OFFICIAL OBSERVATIONS...

CITY           SKY/WX    TMP DP  RH WIND       PRES   REMARKS
GOODLAND KS    MOSUNNY   49  30  48 S12       29.62F
HILL CITY KS   CLOUDY    44  36  73 SW14G21   29.69F
IMPERIAL NEB   CLOUDY    44  28  53 SW10      29.60F
MCCOOK NEB     SUNNY     47  33  58 S15       29.61F
AKRON CO       CLOUDY    43  26  51 S14       29.57F
BURLINGTON CO  MOSUNNY   51  26  37 S13       29.62F
LIMON CO       PTSUNNY   48  18  30 S9        29.60F
$$

...UNOFFICIAL OBSERVATIONS...

CITY           SKY/WX    TMP DP  RH WIND       PRES   REMARKS
GOVE KS          N/A     41  32  70 MISG        N/A
TRIBUNE KS     SUNNY     52  36  54 S8        29.65F
KIT CARSON CO    N/A     42  32  68 MISG        N/A
YUMA CO          N/A     45  29  54 S9          N/A
$$



USA.gov is the U.S. government's official web portal to all federal, state and local government web resources and services.